User: anonymous   Login
Location: Fremont
(37.5480°N, 121.9880°W)
Time: 22:45:47
(UTC-07:00)
Language:

Cosmos 1766 - Orbit

View from above orbital plane
View from above orbital plane
View from above satellite
View from above satellite

Ground track
Ground track

The orbit data is extracted from the following two-line orbital elements,

1 16881U 86055A   18112.37772254  .00000914  00000-0  53487-4 0  9993
2 16881  82.5081  81.1482 0017920 113.2915 247.0204 15.10478860728102
Epoch (UTC): 22 April 2018 09:03:55
Eccentricity: 0.0017920
inclination: 82.5081°
perigee height: 522 km
apogee height: 547 km
right ascension of ascending node: 81.1482°
argument of perigee: 113.2915°
revolutions per day: 15.10478860
mean anomaly at epoch: 247.0204°
orbit number at epoch: 72810

The dashed part of the orbit path shows where the satellite is in the earth's shadow,  

DLR